Regional Weather Roundup
Issued by NWS

Home | Current Version | Previous Version | Graphics & Text | Print | Product List | Glossary On
Versions: 1 2 3 4 5 6 7 8 9 10 11 12 13 14 15 16 17 18 19 20 21 22 23 24 25 26 27
000
ASUS45 KBOU 201710
RWRCO

WEATHER ROUNDUP FOR COLORADO
NATIONAL WEATHER SERVICE DENVER/BOULDER CO
1000 AM MST MON NOV 20 2017

NOTE: "FAIR" INDICATES FEW OR NO CLOUDS BELOW 12000 FEET WITH NO
SIGNIFICANT WEATHER AND/OR OBSTRUCTIONS TO VISIBILITY.

COZ001>005-013-030-031-201800-
...NORTHWEST COLORADO...

CITY           SKY/WX    TMP DP  RH WIND       PRES   REMARKS
CRAIG          FAIR      30  18  60 CALM      30.12
HAYDEN         FAIR      29  17  61 E6        30.14S WCI  23
MEEKER         FAIR      31  22  69 CALM      30.13
RABBIT EARS PA FAIR      27  10  50 W8        30.14S WCI  18
STEAMBOAT SPGS FAIR      23  17  77 CALM      30.13S
WALDEN         FAIR      37   5  25 SW16      30.07F
$$

COZ006>008-011-201800-
...WEST CENTRAL VALLEYS...

CITY           SKY/WX    TMP DP  RH WIND       PRES   REMARKS
GRAND JUNCTION FAIR      35  19  52 CALM      30.20
MONTROSE       FAIR      33  21  61 SE5       30.21  WCI  29
EAGLE          FAIR      23  16  74 CALM      30.21F
RIFLE          FAIR      27  20  75 CALM      30.21
DELTA          FAIR      33  16  50 CALM      30.21S
NUCLA          FAIR      32   9  37 CALM      30.24S
$$

COZ017>023-064>068-201800-
...SOUTHWEST COLORADO...

CITY           SKY/WX    TMP DP  RH WIND       PRES   REMARKS
DURANGO        FAIR      32  18  56 CALM      30.20
CORTEZ         FAIR      38   7  27 CALM      30.22
PAGOSA SPRINGS FAIR      36  11  36 CALM      30.20R
TELLURIDE      FAIR      40   5  23 E3        30.24S
WOLF CREEK PAS FAIR      32  -9  16 S6        30.30S WCI  26
$$

COZ009-010-012-014-032>034-037-058>063-201800-
...CENTRAL COLORADO...

CITY           SKY/WX    TMP DP  RH WIND       PRES   REMARKS
ASPEN          FAIR      30  18  60 NW3       30.15
BUENA VISTA    FAIR      48  -8   9 NW12G28   30.05R
COPPER MTN     FAIR      32  -9  16 MISG      30.23R
BERTHOUD PASS  FAIR      19   9  63 NW32G41   30.15R WCI   0
COTTONWOOD PAS FAIR      45 -24   5 W23G46    30.06R
GUNNISON       FAIR      18  11  74 CALM      30.27S
KREMMLING      CLOUDY    27  18  69 CALM      30.18F
LEADVILLE      FAIR      37 -13  11 VRB3      30.17
MONARCH PASS   FAIR      27  -6  24 W43G49    30.28F WCI   8
SALIDA         FAIR      47  -3  12 CALM      30.12R
SUNLIGHT       FAIR      30  -2  24 SW13G21   30.24S WCI  20
WILKERSON PASS FAIR      32  -9  16 W14G24    30.11R WCI  22
$$

COZ069>075-201800-
...SAN LUIS VALLEY/SANGRE DE CRISTO MOUNTAINS...

CITY           SKY/WX    TMP DP  RH WIND       PRES   REMARKS
ALAMOSA        FAIR      33  17  51 E3        30.15
DEL NORTE      FAIR      34   5  29 CALM      30.17R
LA VETA PASS   FAIR      28   1  31 SW35G51     N/A  WCI  12
SAGUACHE       FAIR      32   5  32 SE3       30.17S
$$

COZ035-036-038>040-201800-
...NORTHERN COLORADO FRONT RANGE...

CITY           SKY/WX    TMP DP  RH WIND       PRES   REMARKS
DENVER INTL AP PTSUNNY   56   5  13 S12       29.83
DMNS CITY PARK   N/A     62   1   8 W10G23    29.83S
AURORA         PTSUNNY   58  -1   9 SW18G29   29.84F
FRONT RANGE AP PTSUNNY   57   7  13 SW7       29.85S
ERIE MUNI ARPT FAIR      58   3  11 S5        29.84F
BOULDER MUN AP FAIR      57   7  13 CALM      29.79F
CENTENNIAL     PTSUNNY   57  10  15 SW7       29.87
BROOMFIELD     PTSUNNY   61   0   8 SW23G38   29.82S
FORT COLLINS   FAIR      56  13  18 W12G26    29.78F
LONGMONT       FAIR      65   2   8 W22G32    29.80F
$$

COZ041-046-047-076>085-087-088-201800-
...PIKES PEAK/PALMER DIVIDE AND SOUTHERN FOOTHILLS...

CITY           SKY/WX    TMP DP  RH WIND       PRES   REMARKS
COLO. SPRINGS  PTSUNNY   59  -2   8 W14       29.91F
A. F. ACADEMY  FAIR      57  -8   7 W18G25    29.90S
SCHRIEVER AFB  FAIR      54  -5   8 CALM      29.91S
CHEYENNE MTN   PTSUNNY   53  -6   8 S13       29.87F
ELLICOTT         N/A      1  -1  91 SW8       29.89  WCI -13
FALCON         FAIR      54  -5   9 W14       29.94S
FORT CARSON    FAIR      49   9  20 CALM      29.89S
LIMON          FAIR      50  12  21 NE3       29.87R
MONUMENT HILL  FAIR      50   3  14 SW8       29.93S
CANON CITY     FAIR      55   5  13 W6        29.93S
WALSENBURG     FAIR      55   5  13 W16G26    29.98R
TRINIDAD       FAIR      50  11  20 W12       29.95F
$$

COZ042>045-048>051-090-091-201800-
...NORTHEAST COLORADO...

CITY           SKY/WX    TMP DP  RH WIND       PRES   REMARKS
GREELEY ARPT   FAIR      36  25  64 SE3       29.81F
AKRON          FAIR      52  10  18 W8        29.82
BURLINGTON     FAIR      64   4   9 SW14G21   29.83
WRAY           NOT AVBL
YUMA           FAIR      59  -6   7 W10       29.80R
STERLING       FAIR      48  23  37 SW10      29.78F
HOLYOKE        FAIR      66   7   9 W18G28    29.76S
FORT MORGAN    FAIR      45  12  26 SE5       29.83F
$$

COZ086-089-092>099-201800-
...SOUTHEAST COLORADO...

CITY           SKY/WX    TMP DP  RH WIND       PRES   REMARKS
PUEBLO         FAIR      42  23  46 E3        29.87
LA JUNTA       FAIR      54  16  22 W8        29.87
LAMAR          FAIR      47  16  29 W12       29.85
SPRINGFIELD      N/A     60   8  12 W14       29.88S
$$




USA.gov is the U.S. government's official web portal to all federal, state and local government web resources and services.